EW5697 Weather Reports


Display with metric or nautical units.
time (UTC)temp
F
wind
direction
speed
MPH
gust
MPH
rain 1hr
in
rain 24hr
in
rain mn
in
humidity
%
barometer
mb
20260904114559 40 91 0.0 0.0 0.00 0.21 0.01 94 1017.0
20260904113056 40 91 0.0 0.0 0.00 0.21 0.01 94 1016.8
20260904111553 40 91 0.0 0.0 0.00 0.21 0.01 94 1016.8
20260904110053 41 91 0.0 0.0 0.00 0.21 0.01 94 1016.6
20260904104549 41 91 0.0 0.0 0.01 0.21 0.01 94 1016.5
20260904103049 41 91 0.0 0.0 0.01 0.21 0.01 94 1016.3
20260904101549 41 91 0.0 0.0 0.01 0.21 0.01 94 1016.3
20260904100047 41 91 0.0 0.0 0.01 0.21 0.01 94 1016.3
20260904094546 41 91 0.0 0.0 0.00 0.20 0.00 94 1016.4
20260904093049 41 91 0.0 0.0 0.00 0.20 0.00 94 1016.3
20260904091544 41 91 0.0 0.0 0.00 0.20 0.00 93 1016.4
20260904090043 41 91 0.0 0.0 0.00 0.20 0.00 93 1016.2
20260904084541 42 91 0.0 0.0 0.00 0.20 0.00 93 1016.2
20260904083040 42 91 0.0 0.0 0.00 0.20 0.00 93 1016.3
20260904081538 42 91 0.0 0.0 0.00 0.20 0.00 93 1016.3
20260904080036 43 91 0.0 0.0 0.00 0.20 0.00 93 1016.2
20260904074537 43 91 0.0 0.0 0.00 0.20 0.00 93 1016.1
20260904073035 43 91 0.0 0.0 0.00 0.20 0.00 93 1016.1
20260904071531 44 91 0.0 0.0 0.00 0.20 0.00 93 1016.0
20260904070029 44 91 0.0 0.0 0.00 0.20 0.00 93 1016.0
20260904064527 44 91 0.0 0.0 0.00 0.20 0.20 93 1015.8
20260904063034 45 91 0.0 0.0 0.00 0.20 0.20 93 1015.7
20260904061528 45 91 0.0 0.0 0.00 0.20 0.20 93 1015.7
20260904060025 45 91 0.0 0.0 0.00 0.20 0.20 93 1015.6
20260904054525 45 91 0.0 0.0 0.00 0.20 0.20 93 1015.7
20260904053027 45 91 0.0 0.0 0.00 0.20 0.20 93 1015.7
20260904051549 45 91 0.0 0.0 0.00 0.20 0.20 93 1015.5
20260904050021 45 91 0.0 0.0 0.00 0.20 0.20 93 1015.6
20260904044519 46 91 0.0 0.0 0.00 0.20 0.20 93 1015.5
20260904043018 46 91 0.0 0.0 0.00 0.20 0.20 92 1015.4
20260904041520 46 91 0.0 0.0 0.00 0.20 0.20 92 1015.3
20260904040022 47 91 0.0 0.0 0.00 0.20 0.20 92 1015.2
20260904034514 47 91 0.0 0.0 0.00 0.20 0.20 92 1015.2
20260904033012 48 91 0.0 0.0 0.00 0.20 0.20 92 1015.1
20260904031510 49 91 0.0 0.0 0.00 0.20 0.20 92 1014.7
20260904030008 50 91 0.0 0.0 0.00 0.20 0.20 92 1014.7
20260904024509 50 91 0.0 0.0 0.00 0.22 0.20 92 1014.8
20260904023008 50 91 0.0 0.0 0.00 0.22 0.20 92 1014.9
20260904021507 50 91 0.0 0.0 0.00 0.22 0.20 92 1014.8
20260904020007 51 91 0.0 0.0 0.00 0.22 0.20 92 1014.7
20260904014507 51 91 0.0 0.0 0.00 0.23 0.20 92 1014.7
20260904013007 51 87 0.0 0.0 0.00 0.23 0.20 92 1014.6
20260904011506 51 87 0.0 0.0 0.01 0.23 0.20 92 1014.5
20260904010011 52 88 0.0 0.0 0.01 0.23 0.20 92 1014.5
20260904004505 52 47 0.0 0.0 0.01 0.24 0.20 93 1014.4
20260904003003 52 85 0.0 0.0 0.02 0.24 0.20 93 1014.2
20260904001501 52 52 0.0 0.0 0.03 0.23 0.19 93 1014.3
20260903234556 53 338 0.0 0.0 0.03 0.23 0.19 93 1014.2
20260903233103 52 330 0.0 0.0 0.02 0.22 0.18 93 1014.3
20260903231552 53 326 0.0 0.0 0.00 0.20 0.16 93 1014.2
20260903230050 53 293 0.0 0.0 0.00 0.20 0.16 93 1014.2
20260903224549 53 258 0.0 0.0 0.00 0.20 0.16 93 1014.3
20260903223047 52 258 0.0 0.0 0.01 0.20 0.16 93 1014.4
20260903221547 52 258 0.0 0.0 0.01 0.20 0.16 93 1014.6
20260903220051 52 256 0.0 0.0 0.01 0.20 0.16 93 1014.5
20260903214545 52 256 0.0 0.0 0.02 0.20 0.16 93 1014.5
20260903213045 52 256 0.0 0.0 0.02 0.19 0.15 92 1014.7
20260903211545 53 238 0.0 0.0 0.03 0.19 0.15 93 1014.7
20260903210057 52 80 0.0 1.0 0.03 0.19 0.15 93 1014.6
20260903204602 52 249 0.0 0.0 0.02 0.18 0.14 92 1014.6
20260903203044 52 202 0.0 1.0 0.02 0.17 0.13 93 1014.8
20260903201542 52 195 0.0 0.0 0.02 0.16 0.12 93 1014.7
20260903200046 52 126 0.0 3.0 0.02 0.16 0.12 93 1014.6
20260903194539 52 165 0.0 0.0 0.03 0.16 0.12 93 1014.6
20260903193037 52 164 0.0 8.0 0.02 0.15 0.11 93 1014.7
20260903191536 51 137 0.0 1.0 0.02 0.14 0.10 93 1014.8
20260903190034 52 156 0.0 1.0 0.02 0.14 0.10 93 1015.0
20260903184534 52 181 0.0 3.0 0.02 0.13 0.09 93 1015.0
20260903183033 52 129 0.0 3.0 0.03 0.13 0.09 93 1015.1
20260903181535 52 189 0.0 6.0 0.02 0.12 0.08 93 1015.2
20260903180036 51 187 0.0 3.0 0.02 0.12 0.08 93 1015.3
20260903174529 51 202 0.0 0.0 0.01 0.13 0.07 93 1015.4
20260903173028 52 125 0.0 2.0 0.00 0.12 0.06 93 1015.4
20260903171526 52 212 0.0 1.0 0.00 0.12 0.06 93 1015.4
20260903170026 51 162 0.0 6.0 0.00 0.12 0.06 93 1015.6
20260903164522 51 172 0.0 0.0 0.00 0.12 0.06 94 1015.6
20260903163021 50 171 0.0 1.0 0.01 0.12 0.06 94 1015.6
20260903161520 50 212 0.0 0.0 0.02 0.12 0.06 94 1015.6
20260903160048 49 169 0.0 4.0 0.02 0.12 0.06 94 1015.4
20260903154518 49 151 0.0 1.0 0.03 0.12 0.06 94 1015.6
20260903153018 49 241 0.0 1.0 0.03 0.11 0.05 93 1015.9
20260903151519 49 193 0.0 1.0 0.02 0.10 0.04 93 1015.8
20260903150024 49 100 0.0 0.0 0.02 0.10 0.04 93 1016.0
20260903144513 49 234 0.0 1.0 0.01 0.09 0.03 93 1016.0
20260903143020 49 162 0.0 2.0 0.00 0.08 0.02 93 1016.1
20260903141513 49 122 0.0 9.0 0.01 0.08 0.02 93 1015.9
20260903140006 49 177 0.0 1.0 0.01 0.08 0.02 93 1015.7
20260903134505 49 183 0.0 1.0 0.01 0.08 0.02 93 1015.7
20260903133004 49 162 0.0 2.0 0.01 0.08 0.02 93 1015.6
20260903131503 49 151 0.0 1.0 0.00 0.07 0.01 93 1015.5
20260903130003 49 132 0.0 1.0 0.01 0.07 0.01 93 1015.5
20260903124500 49 137 0.0 5.0 0.01 0.07 0.01 93 1015.5
20260903123059 49 141 0.0 2.0 0.01 0.07 0.01 93 1015.6
20260903121559 49 161 0.0 8.0 0.01 0.07 0.01 93 1015.7
20260903120106 49 140 0.0 2.0 0.00 0.06 0.00 92 1015.6